Погода в Михайликах

Украина / Полтавская область     49°58′06″N   34°08′44″E
темп.,
°C
ветер,
м/с
пор.,
м/с
влажн.,
%
обл.,
%
осадки,
мм/ч
давл.,
гПа
погр.,
м
16 апреля, пт
пт1600:00+8юв5991100 2.8 1012535
03:00+7ююв4791100 9.7 1012436
06:00+7ююв3694100 2.6 1012393
09:00+8ю468598 4.9 1012622
12:00+10ююв787787 1.0 1013927
15:00+10ю7971100 1.8 10141098
18:00+9ю476965 0.1 1014972
21:00+7ююз368253 0.7 1015377
17 апреля, сб
сб1700:00+4ю378711 0.0 1016272
03:00+5ююв4682100 0.0 1016593
06:00+4юв4696100 0.4 1016783
09:00+4ююв4596100 0.8 1018673
12:00+7ююз468591 0.4 1018715
15:00+8зюз5670100 1.1 10181089
18:00+6юз5686100 0.2 1019597
21:00+5юз469277 0.3 1019350
18 апреля, вс
вс1800:00+5юз389091 0.0 1019431
03:00+5ююз4888100 0.0 1018307
06:00+5ю51085100 0.0 1018365
09:00+8ююз610725 0.0 1017861
12:00+12ююз8105458 0.0 10161727
15:00+13юз7104889 0.1 10162151
18:00+10з686950 0.1 1017762
21:00+6з378325 0.1 1018213
19 апреля, пн
пн1900:00+4зсз2386100 0.0 101879
03:00+4зсз1189100 0.0 101711
06:00+3з229171 0.0 101714
09:00+8з226897 0.0 1017519
12:00+12зюз2354100 0.0 10161138
15:00+14ююз3447100 0.0 10151920
18:00+13ю1149100 0.0 1014243
21:00+9с346679 0.0 101362
20 апреля, вт
вт2000:00+9всв478381 0.0 1011211
03:00+7всв4890100 0.0 1009320
06:00+8св61089100 0.0 1005447
09:00+8св61294100 1.4 1001563
12:00+9всв61297100 10.4 995713
15:00+11ююв398964 14.9 992722
18:00+10ю91487100 1.1 993829
21:00+7з71094100 1.8 995687